{"data":{"norad_id":58028,"intl_designator":"2023-156A","name":"STARLINK-30514","alt_names":[],"object_type":"PAYLOAD","status":"ACTIVE","operator":null,"country":"US","launch_date":"2023-10-09","launch_site_code":"AFWTR","launch_vehicle":null,"mission":null,"orbit_class":"UNKNOWN","rcs_meters":null,"size_class":null,"mass_kg":null,"dimensions":null,"purposes":["comms"],"wikipedia_slug":null,"has_3d_model":false,"image_url":null,"decayed_at":null,"tle_current":{"epoch":"2026-05-25T04:54:21.022272Z","epoch_age_seconds":54495,"freshness":"FRESH","line1":"1 58028U 23156A   26145.20440998  .00000573  00000+0  31494-4 0  9993","line2":"2 58028  53.1608  82.7650 0001655  95.6611 264.4578 15.30192866148034","mean_motion":15.30192866,"eccentricity":0.0001655,"inclination_deg":53.1608,"raan_deg":82.765,"arg_perigee_deg":95.6611,"mean_anomaly_deg":264.4578,"bstar":3.1494e-5,"rev_number":14803,"period_min":94.105784440378,"perigee_km":474.10213704738,"apogee_km":476.37060363296,"semimajor_km":6853.3733703402,"source":"CELESTRAK","updated_at":"2026-05-25T13:38:18.493862Z"}}}